Location: Steilacoom
(47.1700°N, 122.5700°W)
Time: 01:50:59
(UTC-08:00)

ISS - Pass Details

Date: 24 November 2019
Orbit: 411 x 421 km, 51.6° (Epoch: 09 December)

Event Time Altitude Azimuth Distance (km) Brightness Sun altitude
Rises 18:42:10 0° 246° (WSW) 2,351 1.3 -22.5°
Reaches altitude 10° 18:44:15 10° 247° (WSW) 1,492 0.0 -22.9°
Enters shadow 18:46:44 47° 253° (WSW) 566 -2.8 -23.3°
